Torna al catalogo

STARLINK-37366

AttivoComunicazioniSSO
NORAD 68807·PAYLOAD·🇺🇸 United States

Lanciato Apr 23, 2026 da Vandenberg Space Force Base

Loading…

Prossimi Passaggi (prossime 24 ore)

TLE

AggiornatoSource: CelesTrak SupGP

Epoca: Sep 15, 2026, 04:16 UTC

1 68807C 26089F   26258.17826389 -.00050965  00000+0 -15819-2 0  2581
2 68807  97.2849 103.9651 0001995  91.4180 146.5194 15.33467931    15

Traccia STARLINK-37366 in tempo reale con AllMySat

Download on the App Store